User: anonymous   Login
Location: Baptist Hill School
(44.4501°N, 71.7104°W)
Time: 19:24:25
(UTC+00:00)
Language:

Tiangong - Orbit

View from above orbital plane
View from above orbital plane
View from above satellite
View from above satellite

Ground track
Ground track

The orbit data is extracted from the following two-line orbital elements,

1 48274U 21035A   25345.24140529  .00039326  00000-0  49058-3 0  9994
2 48274  41.4683  25.8033 0008641  18.0340 342.0803 15.59084729263796
Epoch (UTC): 11 December 2025 05:47:37
Eccentricity: 0.0008641
inclination: 41.4683°
perigee height: 384 km
apogee height: 396 km
right ascension of ascending node: 25.8033°
argument of perigee: 18.0340°
revolutions per day: 15.59084729
mean anomaly at epoch: 342.0803°
orbit number at epoch: 26379

The dashed part of the orbit path shows where the satellite is in the earth's shadow,  

DLR